{"data":{"norad_id":62921,"epoch":"2026-09-21T22:15:11.869344Z","epoch_age_seconds":44716,"freshness":"FRESH","line1":"1 62921U 25027Q   26264.92722071  .00014184  00000+0  52381-3 0  9995","line2":"2 62921  43.0010 100.6797 0000208 309.4603  50.6230 15.27587935 91553","mean_motion":15.27587935,"eccentricity":2.08e-5,"inclination_deg":43.001,"raan_deg":100.6797,"arg_perigee_deg":309.4603,"mean_anomaly_deg":50.623,"bstar":0.00052381,"rev_number":9155,"period_min":94.266259048452,"perigee_km":482.88262372132,"apogee_km":483.16804807449,"semimajor_km":6861.1623358979,"source":"CELESTRAK","updated_at":"2026-09-22T09:00:49.709330Z"}}